Weather reports worldwide

Advertisment
Edinburgh/Gogarbank, United Kingdom (3166): temperature & dewpoint: 23.09.2020 02:00:00 - 29.09.2020 02:00:00 (BST)Edinburgh/Gogarbank, United Kingdom (3166): temperature -20cm & temperature -100cm: 23.09.2020 02:00:00 - 29.09.2020 02:00:00 (BST)Edinburgh/Gogarbank, United Kingdom (3166): wind speed: 23.09.2020 02:00:00 - 29.09.2020 02:00:00 (BST)Edinburgh/Gogarbank, United Kingdom (3166): wind direction: 23.09.2020 02:00:00 - 29.09.2020 02:00:00 (BST)Edinburgh/Gogarbank, United Kingdom (3166): reduced air pressure: 23.09.2020 02:00:00 - 29.09.2020 02:00:00 (BST)Edinburgh/Gogarbank, United Kingdom (3166): visibility: 23.09.2020 02:00:00 - 29.09.2020 02:00:00 (BST)Edinburgh/Gogarbank, United Kingdom (3166): sunshine duration: 23.09.2020 02:00:00 - 29.09.2020 02:00:00 (BST)Edinburgh/Gogarbank, United Kingdom (3166): precipitation: 23.09.2020 02:00:00 - 29.09.2020 02:00:00 (BST)
Date & Time tt [°C] td [°C] tt -20cm [°C] tt -100cm [°C] ff [km/h] ff [kn] dd ppp [hPa] vv [km] sd [min] rr [mm]
29.09.2020 02:00:00 8,9 7,3 - - 16 9 SW 1014,5 23 0 -
29.09.2020 01:00:00 9,0 7,3 - - 16 9 WSW 1014,1 24 - 0,0
29.09.2020 00:00:00 9,3 7,6 - - 15 8 SW 1014,1 29 0 0,0
28.09.2020 23:00:00 9,4 7,5 - - 13 7 SW 1013,7 22 0 0,0
28.09.2020 22:00:00 10,0 8,2 - - 16 9 SW 1013,3 26 0 0,0
28.09.2020 21:00:00 10,4 8,6 - - 11 6 SW 1012,8 40 0 0,0
28.09.2020 20:00:00 11,5 9,4 - - 13 7 WSW 1012,3 45 0 0,0
28.09.2020 19:00:00 12,9 9,1 - - 15 8 W 1011,5 45 12 0,0
28.09.2020 18:00:00 14,0 11,1 - - 11 6 WSW 1010,7 35 0 0,0
28.09.2020 17:00:00 14,3 11,2 - - 15 8 W 1010,1 50 0 0,0
28.09.2020 16:00:00 14,5 12,1 - - 15 8 W 1009,5 9 0 0,0
28.09.2020 15:00:00 14,4 11,4 - - 18 10 WSW 1009,2 50 0 0,0
28.09.2020 14:00:00 14,7 11,2 - - 21 11 WSW 1009,4 45 0 0,0
28.09.2020 13:00:00 14,3 11,3 - - 16 9 WSW 1009,3 45 0 0,0
28.09.2020 12:00:00 12,6 9,8 - - 5 3 NE 1009,6 30 0 0,0
28.09.2020 11:00:00 10,9 9,0 - - 2 1 NW 1009,7 28 0 0,0
28.09.2020 10:00:00 9,0 7,5 11,7 13,2 4 2 ESE 1010,0 27 0 0,0
28.09.2020 09:00:00 7,6 6,3 - - 2 1 ESE 1010,2 30 0 0,0
28.09.2020 08:00:00 6,3 5,6 - - 2 1 NE 1010,3 26 0 0,0
28.09.2020 07:00:00 5,5 5,2 - - 2 1 WNW 1010,6 27 0 0,0
28.09.2020 06:00:00 4,2 3,7 - - 2 1 ESE 1010,7 27 0 0,0
28.09.2020 05:00:00 4,4 4,1 - - 8 4 SE 1011,3 22 0 0,0
28.09.2020 04:00:00 3,6 3,1 - - 4 2 W 1012,1 26 0 0,0
28.09.2020 03:00:00 4,0 3,4 - - 2 1 N 1012,7 25 0 0,0
28.09.2020 02:00:00 4,3 3,7 - - 2 1 W 1013,3 35 0 0,0
28.09.2020 01:00:00 4,1 3,3 - - 2 1 SW 1013,8 30 - 0,0
28.09.2020 00:00:00 3,8 2,2 - - 0 0 N 1014,1 30 0 0,0
27.09.2020 23:00:00 5,9 3,2 - - 8 4 S 1014,5 40 0 0,0
27.09.2020 22:00:00 5,1 3,3 - - 2 1 SSW 1014,7 24 0 0,0
27.09.2020 21:00:00 6,1 4,0 - - 8 4 S 1014,5 30 0 0,0
27.09.2020 20:00:00 6,2 4,3 - - 5 3 S 1014,6 22 0 0,0
27.09.2020 19:00:00 8,5 5,2 - - 2 1 S 1014,7 23 0 0,0
27.09.2020 18:00:00 10,6 5,2 - - 5 3 N 1014,8 27 30 0,0
27.09.2020 17:00:00 12,7 4,1 - - 4 2 NE 1014,8 30 60 0,0
27.09.2020 16:00:00 12,2 4,5 - - 11 6 ENE 1015,2 17 42 0,0
27.09.2020 15:00:00 12,9 4,3 - - 8 4 ENE 1015,6 30 60 0,0
27.09.2020 14:00:00 12,4 2,9 - - 5 3 NNW 1015,9 25 60 0,0
27.09.2020 13:00:00 11,3 2,3 - - 4 2 N 1016,5 40 60 0,0
27.09.2020 12:00:00 10,9 3,0 - - 5 3 NNE 1017,0 30 60 0,0
27.09.2020 11:00:00 8,3 2,1 - - 5 3 NW 1017,6 26 60 0,0
27.09.2020 10:00:00 6,1 4,0 - - 5 3 NW 1017,9 19 60 0,0
27.09.2020 09:00:00 3,2 2,1 - - 2 1 S 1018,5 20 60 0,0
27.09.2020 08:00:00 -0,4 -0,6 - - 4 2 S 1018,3 30 12 0,0
27.09.2020 07:00:00 -1,7 -2,2 - - 4 2 W 1018,4 17 0 0,0
27.09.2020 06:00:00 -1,2 -1,8 - - 0 0 N 1018,6 21 0 0,0
27.09.2020 05:00:00 -0,6 -1,4 - - 0 0 N 1019,0 17 0 0,0
27.09.2020 04:00:00 0,6 0,0 - - 4 2 SSW 1019,4 23 0 0,0
27.09.2020 03:00:00 0,9 -0,1 - - 5 3 SW 1019,8 22 0 0,0
27.09.2020 02:00:00 1,6 0,9 - - 5 3 SSW 1019,9 21 0 0,0
27.09.2020 01:00:00 2,1 1,1 - - 5 3 SSW 1019,9 20 - 0,0
27.09.2020 00:00:00 3,9 2,7 - - 8 4 SSW 1020,3 21 0 0,0
26.09.2020 23:00:00 3,4 2,3 - - 4 2 WSW 1020,2 21 0 0,0
26.09.2020 22:00:00 4,6 2,8 - - 2 1 WSW 1019,9 22 0 0,0
26.09.2020 21:00:00 5,9 3,4 - - 0 0 N 1019,6 21 0 0,0
26.09.2020 20:00:00 8,5 3,9 - - 8 4 NE 1019,5 30 0 0,0
26.09.2020 19:00:00 10,7 2,9 - - 8 4 NNE 1019,1 35 36 0,0
26.09.2020 18:00:00 12,9 3,4 - - 9 5 NNE 1018,4 35 54 0,0
26.09.2020 17:00:00 13,8 3,4 - - 15 8 N 1017,8 30 54 0,0
26.09.2020 16:00:00 14,0 3,4 - - 16 9 N 1017,6 30 48 0,0
26.09.2020 15:00:00 13,1 3,7 - - 13 7 N 1017,5 40 18 0,0
26.09.2020 14:00:00 13,5 3,2 - - 15 8 NNE 1017,6 24 42 0,0
26.09.2020 13:00:00 12,3 3,3 - - 16 9 N 1017,5 30 24 0,0
26.09.2020 12:00:00 11,1 3,7 - - 16 9 NNW 1017,3 40 6 0,0
26.09.2020 11:00:00 10,1 3,2 - - 15 8 NNW 1017,1 45 42 0,0
26.09.2020 10:00:00 9,6 4,4 - - 11 6 NW 1016,7 35 12 0,0
26.09.2020 09:00:00 6,0 3,0 - - 8 4 WSW 1016,3 50 6 0,0
26.09.2020 08:00:00 4,3 1,9 - - 8 4 WSW 1015,9 50 0 0,0
26.09.2020 07:00:00 3,4 0,8 - - 9 5 WSW 1015,3 50 0 0,0
26.09.2020 06:00:00 5,3 1,6 - - 13 7 W 1014,9 50 0 0,0
26.09.2020 05:00:00 4,4 0,9 - - 13 7 SW 1014,6 50 0 0,0
26.09.2020 04:00:00 3,7 0,6 - - 11 6 SW 1014,6 50 0 0,0
26.09.2020 03:00:00 4,0 1,1 - - 8 4 SW 1014,4 50 0 0,0
26.09.2020 02:00:00 2,9 -0,2 - - 8 4 WSW 1014,4 45 0 0,0
26.09.2020 01:00:00 4,3 0,2 - - 9 5 SW 1014,4 50 - 0,0
26.09.2020 00:00:00 6,6 0,0 - - 11 6 NNW 1014,3 45 0 0,0
25.09.2020 23:00:00 7,0 0,8 - - 13 7 NW 1014,1 50 0 0,0
25.09.2020 22:00:00 6,9 1,3 - - 11 6 NW 1014,1 50 0 0,0
25.09.2020 21:00:00 8,1 1,9 - - 15 8 NW 1013,8 50 0 0,0
25.09.2020 20:00:00 7,6 2,0 - - 9 5 NW 1013,3 45 0 0,0
25.09.2020 19:00:00 9,7 2,5 - - 18 10 NNW 1012,3 45 24 0,0
25.09.2020 18:00:00 11,2 2,8 - - 18 10 NNW 1011,2 45 6 0,0
25.09.2020 17:00:00 11,3 3,2 - - 15 8 N 1010,7 45 0 0,0
25.09.2020 16:00:00 12,0 3,8 - - 18 10 NNW 1010,4 50 6 0,0
25.09.2020 15:00:00 12,3 5,1 - - 21 11 NW 1010,1 45 6 0,0
25.09.2020 14:00:00 10,9 5,8 - - 21 11 NNW 1009,9 23 0 0,2
25.09.2020 13:00:00 11,5 5,1 - - 18 10 NNW 1009,5 50 0 0,0
25.09.2020 12:00:00 11,4 4,7 - - 16 9 NNW 1009,1 50 0 0,0
25.09.2020 11:00:00 12,0 5,4 - - 18 10 NW 1008,6 50 36 0,0
25.09.2020 10:00:00 9,6 5,3 12,7 13,7 13 7 WNW 1008,1 50 0 0,0
25.09.2020 09:00:00 8,9 4,6 - - 13 7 NW 1007,6 50 0 0,0
25.09.2020 08:00:00 7,9 5,0 - - 9 5 WNW 1006,8 50 0 0,0
25.09.2020 07:00:00 6,4 4,2 - - 5 3 SW 1006,4 50 0 0,0
25.09.2020 06:00:00 5,7 4,0 - - 4 2 WSW 1006,1 45 0 0,0
25.09.2020 05:00:00 4,8 3,4 - - 8 4 SSW 1005,7 45 0 0,0
25.09.2020 04:00:00 4,3 3,0 - - 8 4 SSW 1004,9 50 0 0,0
25.09.2020 03:00:00 4,2 3,1 - - 5 3 SW 1004,3 50 0 0,0
25.09.2020 02:00:00 3,9 2,9 - - 8 4 SW 1004,0 50 0 0,0
25.09.2020 01:00:00 3,7 2,2 - - 5 3 WSW 1003,3 50 - 0,0
25.09.2020 00:00:00 4,1 2,3 - - 5 3 W 1002,6 50 0 0,0
24.09.2020 23:00:00 6,2 2,7 - - 8 4 NNW 1001,9 50 0 0,0
24.09.2020 22:00:00 7,9 2,8 - - 9 5 N 1001,1 50 0 0,0
24.09.2020 21:00:00 10,0 4,0 - - 18 10 NE 1000,0 45 0 0,0
24.09.2020 20:00:00 10,2 3,9 - - 16 9 ENE 998,9 40 0 0,0
24.09.2020 19:00:00 10,4 4,8 - - 16 9 ENE 997,9 40 0 0,0
24.09.2020 18:00:00 10,8 5,3 - - 16 9 ENE 997,2 35 0 0,0
24.09.2020 17:00:00 11,0 5,7 - - 15 8 ENE 996,3 30 0 0,0
24.09.2020 16:00:00 10,7 5,7 - - 13 7 E 995,9 30 0 0,0
24.09.2020 15:00:00 10,4 5,0 - - 16 9 E 995,4 50 24 0,0
24.09.2020 14:00:00 9,8 6,7 - - 15 8 E 995,1 35 0 0,2
24.09.2020 13:00:00 11,2 5,8 - - 18 10 ENE 994,5 45 6 0,0
24.09.2020 12:00:00 10,5 6,0 - - 16 9 E 994,3 45 6 0,0
24.09.2020 11:00:00 10,2 6,4 - - 13 7 ENE 994,0 35 24 0,0
24.09.2020 10:00:00 9,7 6,4 13,4 13,7 2 1 SSW 993,9 40 54 0,0
24.09.2020 09:00:00 5,3 5,2 - - 4 2 S 993,8 24 54 0,0
24.09.2020 08:00:00 2,5 2,4 - - 2 1 W 993,8 15 6 0,0
24.09.2020 07:00:00 2,5 2,3 - - 4 2 SW 993,8 24 0 0,0
24.09.2020 06:00:00 2,0 1,7 - - 4 2 WSW 993,9 30 0 0,0
24.09.2020 05:00:00 2,5 2,1 - - 4 2 SSW 994,1 35 0 0,0
24.09.2020 04:00:00 3,5 3,1 - - 2 1 S 994,3 40 0 0,0
24.09.2020 03:00:00 4,3 3,6 - - 4 2 SSW 995,0 40 0 0,0
24.09.2020 02:00:00 5,3 4,6 - - 4 2 SW 995,4 50 0 0,0
24.09.2020 01:00:00 5,7 4,5 - - 5 3 SSW 995,9 50 - 0,0
24.09.2020 00:00:00 6,6 5,0 - - 8 4 WSW 996,5 40 0 0,0
23.09.2020 23:00:00 6,6 5,4 - - 8 4 S 997,2 45 0 0,0
23.09.2020 22:00:00 7,2 5,4 - - 5 3 SSW 997,6 40 0 0,0
23.09.2020 21:00:00 7,0 5,3 - - 5 3 WSW 998,0 50 0 0,0
23.09.2020 20:00:00 8,4 5,2 - - 2 1 ENE 998,2 50 0 0,0
23.09.2020 19:00:00 9,9 5,4 - - 8 4 E 998,4 50 0 0,0
23.09.2020 18:00:00 10,6 4,8 - - 9 5 E 998,8 50 0 0,0
23.09.2020 17:00:00 11,1 4,5 - - 9 5 ENE 999,7 50 18 0,0
23.09.2020 16:00:00 11,5 4,3 - - 11 6 ENE 1000,2 40 0 0,0
23.09.2020 15:00:00 12,0 3,9 - - 11 6 NE 1000,8 40 0 0,0
23.09.2020 14:00:00 11,6 3,9 - - 11 6 ENE 1001,0 50 6 0,0
23.09.2020 13:00:00 11,5 4,0 - - 13 7 ENE 1001,2 50 6 0,0
23.09.2020 12:00:00 11,3 4,7 - - 8 4 ENE 1001,6 50 36 0,0
23.09.2020 11:00:00 11,9 5,8 - - 4 2 ENE 1001,7 45 60 0,0
23.09.2020 10:00:00 9,2 4,8 13,7 13,7 4 2 NW 1001,9 50 42 0,0
23.09.2020 09:00:00 7,3 6,6 - - 4 2 W 1002,0 50 0 0,0
23.09.2020 08:00:00 5,4 5,0 - - 4 2 WSW 1001,7 50 0 0,0
23.09.2020 07:00:00 4,4 3,8 - - 4 2 SSW 1001,5 50 0 0,0
23.09.2020 06:00:00 5,6 4,7 - - 5 3 SSW 1001,1 50 0 0,0
23.09.2020 05:00:00 5,8 4,8 - - 2 1 S 1000,7 50 0 0,0
23.09.2020 04:00:00 6,9 5,5 - - 5 3 WSW 1000,2 50 0 0,0
23.09.2020 03:00:00 8,7 6,7 - - 11 6 WSW 1000,0 45 0 0,0
23.09.2020 02:00:00 9,8 7,2 - - 15 8 WSW 999,4 50 0 0,0

tt = temperature
td = dewpoint
tt -20cm = temperature -20cm
tt -100cm = temperature -100cm
ff = wind speed
dd = wind direction
ppp = reduced air pressure
vv = visibility
sd = sunshine duration
rr = precipitation

Next stations